Overview Statistics Trail Chart Weather Telemetry Raw packets
 

This is the latest recevied weather packets stored in our database for station/object NT9G. If no packets are shown the sender has not sent any weather packets the latest 10 day(s).

<< 53 54 55 56 57 58 59 >>
Time Temp. Humidity Pressure Rain* Wind** Luminosity Snow
1777495344 16.11° C 30% 1015.6 hPa 1.02 mm - - -
1777495044 16.11° C 31% 1015.6 hPa 1.02 mm - - -
1777494744 15.56° C 29% 1015.7 hPa 1.02 mm - - -
1777494444 15.56° C 33% 1015.7 hPa 1.02 mm - - -
1777494143 15° C 33% 1015.8 hPa 1.02 mm - - -
1777493843 15° C 33% 1015.8 hPa 1.02 mm - - -
1777493543 15.56° C 31% 1015.8 hPa 1.02 mm - - -
1777493242 16.11° C 30% 1016 hPa 1.02 mm - - -
1777492942 15.56° C 33% 1015.9 hPa 1.02 mm - - -
1777492642 15.56° C 31% 1016.2 hPa 1.02 mm - - -
1777492342 15.56° C 32% 1016 hPa 1.02 mm - - -
1777492041 16.11° C 31% 1016 hPa 1.02 mm - - -
1777491741 15.56° C 31% 1016 hPa 1.02 mm - - -
1777491441 16.11° C 32% 1016 hPa 1.02 mm - - -
1777491140 16.11° C 34% 1015.9 hPa 1.02 mm - - -
1777490840 15.56° C 32% 1015.9 hPa 1.02 mm - - -
1777490540 15.56° C 33% 1016 hPa 1.02 mm - - -
1777490240 15° C 32% 1015.9 hPa 1.02 mm - - -
1777489939 15° C 35% 1016 hPa 1.02 mm - - -
1777489639 15° C 32% 1016 hPa 1.02 mm - - -
1777489339 15° C 35% 1016 hPa 1.02 mm - - -
1777489038 15° C 33% 1015.9 hPa 1.02 mm - - -
1777488738 15° C 37% 1015.9 hPa 1.02 mm - - -
1777488438 15° C 39% 1016 hPa 1.02 mm - - -
1777488138 14.44° C 39% 1015.9 hPa 1.02 mm - - -

* Rain since midnight (hover to see other rain measurements)
** Current wind speed in m/s (hover to see current wind gust speed)